Regional Weather Roundup
Issued by NWS Sioux Falls, SD

Home | Current Version | Previous Version | Text Only | Print | Product List | Glossary On
Versions: 1 2 3 4 5 6 7 8 9 10 11 12 13 14 15 16 17 18 19 20 21 22 23 24 25 26 27 28 29 30 31 32 33 34 35 36 37 38 39 40 41 42 43 44 45 46 47 48 49 50
000
ASUS43 KFSD 261510
RWRFSD

WEATHER ROUNDUP FOR SE SOUTH DAKOTA/SW MINNESOTA/NW IOWA
NATIONAL WEATHER SERVICE SIOUX FALLS SD
1000 AM CDT THU MAY 26 2016

NOTE: "FAIR" INDICATES FEW OR NO CLOUDS BELOW 12,000 FEET WITH NO
SIGNIFICANT WEATHER AND OR OBSTRUCTIONS TO VISIBILITY.


SDZ038>040-050-052>070-261600-
SOUTHEAST SOUTH DAKOTA

CITY           SKY/WX    TMP DP  RH WIND       PRES   REMARKS
BROOKINGS      SUNNY     66  50  56 NW8       29.86F
CHAMBERLAIN    SUNNY     67  56  67 SE6       29.89R
HURON          SUNNY     64  50  60 W3        29.86F
MADISON        FAIR      64  54  68 NW9       29.87F
MITCHELL       SUNNY     67  52  58 E5        29.88S
SIOUX FALLS    MOSUNNY   70  53  54 N5        29.87S
WINNER         FAIR      69  53  56 SE9       29.89R
YANKTON        SUNNY     64  52  63 SE6       29.89R
$$

MNZ071-072-080-081-089-090-097-098-261600-
SOUTHWEST MINNESOTA

CITY           SKY/WX    TMP DP  RH WIND       PRES   REMARKS
FAIRMONT       SUNNY     68  54  60 W13       29.87R
JACKSON        SUNNY     68  52  56 CALM      29.88S
LUVERNE        SUNNY     68  46  45 N7        29.87S
MARSHALL       SUNNY     69  47  45 NW12      29.84S
MONTEVIDEO     SUNNY     70  52  52 NW13      29.84S
PIPESTONE      SUNNY     66  48  52 N14       29.86S
REDWOOD FALLS  SUNNY     69  53  56 NW10      29.83R
TRACY          SUNNY     70  49  47 NW10      29.86S
WINDOM         SUNNY     70  52  52 CALM      29.87R
WORTHINGTON    SUNNY     67  52  58 N5        29.89R
$$

IAZ001>003-012>014-020>022-031-032-NEZ013-014-SDZ071-261600-
NORTHWEST IOWA

CITY           SKY/WX    TMP DP  RH WIND       PRES   REMARKS
CHEROKEE       SUNNY     67  63  86 SW7       29.89F
DENISON        SUNNY     68  59  73 CALM      29.86F
ESTHERVILLE    SUNNY     67  58  72 W10       29.88S
LE MARS        SUNNY     68  59  73 S7        29.89F
ORANGE CITY    SUNNY     68  54  60 CALM      29.88S
SHELDON        SUNNY     68  54  60 N6        29.87S
SIOUX CITY     SUNNY     71  61  70 VRB3      29.88F
SPENCER        SUNNY     67  57  70 CALM      29.88F
STORM LAKE     SUNNY     68  57  68 SW9       29.90S
$$

ABBREVIATIONS USED IN REMARKS
   TC - TEMPERATURE IN CELSIUS
  WCI - WIND CHILL INDEX
   HX - HEAT INDEX
  VSB - VISIBILITY




USA.gov is the U.S. government's official web portal to all federal, state and local government web resources and services.